DW4338 Bergen NO current weather conditions

sailwx.info

Wind from 300 at 17 knots gusting 23

Air temperature 5.0° C
Dewpoint 4.3° C

Last reported at 2017-Jan-23 07:54 UTC.
Time now 2017-Jan-23 08:39 UTC

Location: N 60°31' E 004°54'.
View on Google Maps.

See reports from other nearby stations

  
Tides and Currents Weather Stations Pressure Air Temp Water Temp Dewpoint Dewpoint Depression Visibility Wind Speed Wind Dir Waves Ship Positions
date/time (UTC)wind fromknots sea level pressurealtimeterstation pressurevisibilityair tempwater tempwave heightnotes
2017-Jan-23 07:54 300 17 gusting 23 5.0
2017-Jan-23 07:39 301 13 gusting 25 5.0
2017-Jan-23 07:24 291 19 gusting 32 5.0
2017-Jan-23 07:09 303 13 gusting 30 5.0
2017-Jan-23 06:54 305 15 gusting 31 5.0
2017-Jan-23 06:39 310 16 gusting 30 4.4
2017-Jan-23 06:24 302 13 gusting 39 5.0
2017-Jan-23 06:09 273 17 gusting 30 5.6
2017-Jan-23 05:54 248 22 gusting 35 5.0
2017-Jan-23 05:39 270 14 gusting 30 5.0
2017-Jan-23 05:24 245 11 gusting 25 5.0
2017-Jan-23 05:09 250 13 gusting 25 5.0
2017-Jan-23 04:54 243 17 gusting 33 5.0
2017-Jan-23 04:39 209 8 gusting 24 4.4
2017-Jan-23 04:24 235 13 gusting 26 4.4
2017-Jan-23 04:09 239 9 gusting 24 4.4
2017-Jan-23 03:54 205 11 gusting 22 4.4
2017-Jan-23 03:39 155 4 gusting 19 4.4
2017-Jan-23 03:24 163 4.4
2017-Jan-23 03:08 200 2 gusting 15 4.4
2017-Jan-23 02:53 213 9 gusting 23 4.4
2017-Jan-23 02:38 263 11 gusting 19 4.4
2017-Jan-23 02:23 239 12 gusting 25 4.4
2017-Jan-23 02:08 234 10 gusting 21 4.4
2017-Jan-23 01:53 262 14 gusting 30 3.9
2017-Jan-23 01:38 153 4 gusting 27 3.9
2017-Jan-23 01:23 163 10 gusting 25 3.9
2017-Jan-23 01:08 144 6 gusting 19 3.9
2017-Jan-23 00:53 199 9 gusting 21 3.9
2017-Jan-23 00:38 179 7 gusting 21 3.9
2017-Jan-23 00:23 237 9 gusting 21 3.9
2017-Jan-23 00:08 187 5 gusting 23 3.9
2017-Jan-22 23:53 202 8 gusting 19 3.9
2017-Jan-22 23:38 250 7 gusting 26 3.9
2017-Jan-22 23:23 198 5 gusting 33 3.9
2017-Jan-22 23:08 250 9 gusting 26 3.9
2017-Jan-22 22:53 178 8 gusting 27 3.9
2017-Jan-22 22:38 209 7 gusting 28 3.9
2017-Jan-22 22:23 163 10 gusting 26 3.9
2017-Jan-22 22:08 215 11 gusting 39 3.9
2017-Jan-22 21:53 157 13 gusting 28 3.9
2017-Jan-22 21:38 179 13 gusting 27 3.9
2017-Jan-22 21:23 151 16 gusting 32 3.9
2017-Jan-22 21:08 153 8 gusting 29 3.9
2017-Jan-22 20:53 156 12 gusting 28 3.9
2017-Jan-22 20:38 207 12 gusting 27 3.9
2017-Jan-22 20:23 152 8 gusting 35 3.3
2017-Jan-22 20:08 159 18 gusting 38 3.3
2017-Jan-22 19:53 134 15 gusting 30 3.9
2017-Jan-22 19:38 206 12 gusting 26 3.9
2017-Jan-22 19:23 168 7 gusting 31 3.9
2017-Jan-22 19:08 178 12 gusting 27 3.3
2017-Jan-22 18:53 165 8 gusting 31 3.3
2017-Jan-22 18:38 159 13 gusting 31 3.3
2017-Jan-22 18:23 158 13 gusting 29 3.3
2017-Jan-22 18:08 140 12 gusting 28 3.3
2017-Jan-22 17:53 151 15 gusting 32 3.3
2017-Jan-22 17:38 142 14 gusting 35 3.3
2017-Jan-22 17:23 146 16 gusting 29 3.3
2017-Jan-22 17:08 152 14 gusting 25 3.3
2017-Jan-22 16:53 154 19 gusting 30 3.3
2017-Jan-22 16:38 157 16 gusting 33 3.3
2017-Jan-22 16:23 204 15 gusting 31 3.3
2017-Jan-22 16:08 163 14 gusting 30 3.3
2017-Jan-22 15:53 144 14 gusting 29 3.3
2017-Jan-22 15:38 169 14 gusting 33 3.3
2017-Jan-22 15:22 169 13 gusting 33 3.3
2017-Jan-22 15:07 153 11 gusting 34 3.9
2017-Jan-22 14:53 164 12 gusting 23 3.9
2017-Jan-22 14:37 127 12 gusting 35 3.9
2017-Jan-22 14:22 143 13 gusting 29 3.9
2017-Jan-22 14:07 197 13 gusting 26 3.9
2017-Jan-22 13:52 149 13 gusting 29 3.9
2017-Jan-22 13:37 171 11 gusting 35 3.9
2017-Jan-22 13:22 144 17 gusting 32 3.9
2017-Jan-22 13:07 142 15 gusting 28 3.9
2017-Jan-22 12:52 146 19 gusting 34 3.9
2017-Jan-22 12:37 133 17 gusting 35 3.9
2017-Jan-22 12:22 155 15 gusting 37 3.9
2017-Jan-22 12:07 166 16 gusting 28 3.9
2017-Jan-22 11:52 147 19 gusting 33 3.9
2017-Jan-22 11:37 187 14 gusting 39 3.9
2017-Jan-22 11:22 165 17 gusting 35 3.9
2017-Jan-22 11:07 226 13 gusting 28 3.9
2017-Jan-22 10:52 159 15 gusting 33 3.9
2017-Jan-22 10:37 141 17 gusting 37 3.3
2017-Jan-22 10:22 165 14 gusting 38 3.3
2017-Jan-22 10:07 171 12 gusting 33 3.3
2017-Jan-22 09:52 141 12 gusting 37 3.3
2017-Jan-22 09:37 142 15 gusting 31 3.3
2017-Jan-22 09:22 161 18 gusting 38 3.3
2017-Jan-22 09:07 144 16 gusting 27 3.3
2017-Jan-22 08:52 136 15 gusting 33 3.3
2017-Jan-22 08:37 130 13 gusting 31 3.3
2017-Jan-22 08:22 134 18 gusting 35 3.3
2017-Jan-22 08:07 146 19 gusting 31 3.3
2017-Jan-22 07:52 165 18 gusting 31 3.3
2017-Jan-22 07:37 155 11 gusting 28 3.3
2017-Jan-22 07:22 150 13 gusting 27 3.3
2017-Jan-22 07:07 150 14 gusting 27 3.3
2017-Jan-22 06:52 193 13 gusting 24 3.3
2017-Jan-22 06:37 190 12 gusting 34 3.3
2017-Jan-22 06:22 153 13 gusting 29 3.3
2017-Jan-22 06:07 163 14 gusting 33 3.3
2017-Jan-22 05:52 137 17 gusting 33 3.3
2017-Jan-22 05:37 148 17 gusting 27 3.3
2017-Jan-22 05:22 142 10 gusting 26 3.3
2017-Jan-22 05:07 159 13 gusting 25 3.9
2017-Jan-22 04:51 150 14 gusting 31 3.9
2017-Jan-22 04:36 149 13 gusting 24 3.9
2017-Jan-22 04:21 146 13 gusting 30 3.3
2017-Jan-22 04:06 160 12 gusting 24 3.3
2017-Jan-22 03:51 150 13 gusting 31 3.9
2017-Jan-22 03:36 144 13 gusting 32 3.9
2017-Jan-22 03:21 133 14 gusting 30 3.9
2017-Jan-22 03:06 153 11 gusting 30 3.9
2017-Jan-22 02:51 138 12 gusting 27 3.9
2017-Jan-22 02:36 138 13 gusting 24 3.9
2017-Jan-22 02:21 150 10 gusting 23 3.9
2017-Jan-22 02:06 156 13 gusting 27 3.9
2017-Jan-22 01:51 138 8 gusting 26 3.9
2017-Jan-22 01:36 150 12 gusting 25 3.9
2017-Jan-22 01:21 148 7 gusting 19 3.9
2017-Jan-22 01:06 144 13 gusting 21 3.9
2017-Jan-22 00:51 139 6 gusting 19 3.9
2017-Jan-22 00:36 175 11 gusting 23 3.9
2017-Jan-22 00:21 161 1 gusting 23 3.9
2017-Jan-22 00:06 143 8 gusting 22 3.9
2017-Jan-21 23:51 149 8 gusting 17 3.9
2017-Jan-21 23:36 149 9 gusting 21 3.9
2017-Jan-21 23:21 140 4 gusting 19 3.9
2017-Jan-21 23:06 139 7 gusting 21 3.9
2017-Jan-21 22:51 150 7 gusting 15 3.9
2017-Jan-21 22:36 142 6 gusting 18 3.9
2017-Jan-21 22:21 144 13 gusting 26 3.9
2017-Jan-21 22:06 149 7 gusting 19 4.4
2017-Jan-21 21:51 153 10 gusting 22 3.9
2017-Jan-21 21:35 144 7 gusting 19 3.9
2017-Jan-21 21:21 143 10 gusting 19 3.9
2017-Jan-21 21:05 154 6 gusting 19 3.9
2017-Jan-21 20:50 149 12 gusting 19 3.9
2017-Jan-21 20:35 149 8 gusting 15 3.9
2017-Jan-21 20:20 145 12 gusting 25 3.9
2017-Jan-21 20:05 146 8 gusting 17 3.9
2017-Jan-21 19:50 146 6 gusting 13 3.9
2017-Jan-21 19:35 146 1 gusting 18 3.9
2017-Jan-21 19:20 146 6 gusting 16 3.9
2017-Jan-21 19:05 146 6 gusting 18 3.9
2017-Jan-21 18:50 146 1 gusting 15 3.9
2017-Jan-21 18:35 166 2 gusting 13 4.4
2017-Jan-21 18:20 165 2 gusting 8 4.4
2017-Jan-21 18:05 174 4.4
2017-Jan-21 17:50 174 4.4
2017-Jan-21 17:35 158 3 gusting 12 4.4
2017-Jan-21 17:20 142 4.4
2017-Jan-21 17:05 142 4.4
2017-Jan-21 16:50 142 1 gusting 12 4.4
2017-Jan-21 16:35 142 5.0
2017-Jan-21 16:20 142 6 gusting 12 5.0
2017-Jan-21 16:05 142 6 gusting 8 5.0
2017-Jan-21 15:50 142 6 gusting 16 5.0
2017-Jan-21 15:36 142 8 gusting 19 5.0
2017-Jan-21 15:20 136 9 gusting 15 5.6
2017-Jan-21 15:05 136 9 gusting 15 5.6
2017-Jan-21 14:50 147 7 gusting 15 6.1
2017-Jan-21 14:35 188 6.1
2017-Jan-21 14:20 188 6.1
2017-Jan-21 14:04
2017-Jan-21 13:52